Starlink 35098

operational
NORAD ID: 65476 Int'l Des: 2025-195 Owner: SPXS Country: US Constellation: starlink
LEOCIRCULAR

About Starlink 35098

Description loading...

Live Position

Loading 3D Globe...

Upcoming Passes

Altitude History

Altitude vs Time

uPlot chart will show altitude changes over time

Two-Line Element Set

1 65476U 25195U 25293.87423588 .00095328 00000-0 23650-2 0 9991
2 65476 53.1592 189.2917 0002158 353.4456 6.6520 15.39599348 8540
Epoch: Oct 20, 2025 • Age: 16 hours

Current Status

Altitude 448.3 km
Velocity 7.65 km/s
Sub-Earth Point 33.86°N, 5.29°W
Launch Date Sep 3, 2025
Age 0.1 years
Type internet

Technical Details

Classification Payload
Mass 575.00 kg
Dry Mass 530.00 kg
Total Mass 575.00 kg
Length 0.30 m
Diameter 4.10 m
Span 29.00 m
Shape Box + pan
Manufacturer SPXS
Bus Type Starlink V2MO
Phase Status In Orbit
Owner/State SPXS/US

Large Constellations

Loading constellations...